Time,TemperatureF,DewpointF,PressureIn,WindDirection,WindDirectionDegrees,WindSpeedMPH,WindSpeedGustMPH,Humidity,HourlyPrecipIn,Conditions,Clouds,dailyrainin,SoftwareType,DateUTC
2013-03-01 00:02:00,36.0,33.0,29.52,NE,41,1.0,-999.0,90,-99.99,,,-99.99,,2013-03-01 05:02:00,
2013-03-01 00:11:00,36.0,33.0,29.52,NE,41,1.0,-999.0,90,-99.99,,,-99.99,,2013-03-01 05:11:00,
2013-03-01 00:22:00,36.0,33.0,29.52,NNE,25,3.0,-999.0,90,-99.99,,,-99.99,,2013-03-01 05:22:00,
2013-03-01 00:32:00,36.0,33.0,29.52,NE,55,1.0,-999.0,90,-99.99,,,-99.99,,2013-03-01 05:32:00,
2013-03-01 00:42:00,36.0,33.0,29.52,NE,55,1.0,-999.0,90,-99.99,,,-99.99,,2013-03-01 05:42:00,
2013-03-01 00:52:00,36.0,33.0,29.52,NNE,26,2.0,-999.0,90,-99.99,,,-99.99,,2013-03-01 05:52:00,
2013-03-01 01:02:00,36.0,33.0,29.52,NNE,26,2.0,-999.0,90,-99.99,,,-99.99,,2013-03-01 06:02:00,
2013-03-01 01:12:00,36.0,33.0,29.52,NNE,21,4.0,-999.0,90,-99.99,,,-99.99,,2013-03-01 06:12:00,
2013-03-01 01:22:00,36.0,33.0,29.52,NNE,21,4.0,-999.0,90,-99.99,,,-99.99,,2013-03-01 06:22:00,
2013-03-01 01:32:00,35.0,32.0,29.52,NNW,345,2.0,-999.0,90,-99.99,,,-99.99,,2013-03-01 06:32:00,
2013-03-01 01:42:00,35.0,32.0,29.52,NNW,345,2.0,-999.0,90,-99.99,,,-99.99,,2013-03-01 06:42:00,
2013-03-01 01:53:00,35.0,32.0,29.52,NNE,19,0.0,-999.0,90,-99.99,,,-99.99,,2013-03-01 06:53:00,
2013-03-01 02:02:00,35.0,33.0,29.52,NNE,15,0.0,-999.0,91,-99.99,,,-99.99,,2013-03-01 07:02:00,
2013-03-01 02:12:00,35.0,33.0,29.52,NNE,15,0.0,-999.0,91,-99.99,,,-99.99,,2013-03-01 07:12:00,
2013-03-01 02:22:00,35.0,33.0,29.53,NNE,15,0.0,-999.0,91,-99.99,,,-99.99,,2013-03-01 07:22:00,
2013-03-01 02:32:00,35.0,32.0,29.52,NNE,22,0.0,-999.0,90,-99.99,,,-99.99,,2013-03-01 07:32:00,
2013-03-01 02:42:00,35.0,32.0,29.52,NNE,22,0.0,-999.0,90,-99.99,,,-99.99,,2013-03-01 07:42:00,
2013-03-01 02:52:00,35.0,32.0,29.52,NNE,22,1.0,-999.0,90,-99.99,,,-99.99,,2013-03-01 07:52:00,
2013-03-01 03:02:00,35.0,32.0,29.52,NNE,22,0.0,-999.0,90,-99.99,,,-99.99,,2013-03-01 08:02:00,
2013-03-01 03:12:00,35.0,32.0,29.52,NNE,22,0.0,-999.0,90,-99.99,,,-99.99,,2013-03-01 08:12:00,
2013-03-01 03:22:00,35.0,32.0,29.52,NNE,22,0.0,-999.0,90,-99.99,,,-99.99,,2013-03-01 08:22:00,
2013-03-01 03:32:00,35.0,32.0,29.53,NNE,22,0.0,-999.0,90,-99.99,,,-99.99,,2013-03-01 08:32:00,
2013-03-01 03:43:00,35.0,32.0,29.53,NNE,22,0.0,-999.0,90,-99.99,,,-99.99,,2013-03-01 08:43:00,
2013-03-01 03:52:00,35.0,32.0,29.53,NNE,22,0.0,-999.0,90,-99.99,,,-99.99,,2013-03-01 08:52:00,
2013-03-01 04:02:00,35.0,32.0,29.53,NNE,22,1.0,-999.0,90,-99.99,,,-99.99,,2013-03-01 09:02:00,
2013-03-01 04:12:00,35.0,32.0,29.53,NNE,22,1.0,-999.0,90,-99.99,,,-99.99,,2013-03-01 09:12:00,
2013-03-01 04:22:00,35.0,32.0,29.54,NNE,21,0.0,-999.0,90,-99.99,,,-99.99,,2013-03-01 09:22:00,
2013-03-01 04:32:00,35.0,32.0,29.54,NNE,21,0.0,-999.0,90,-99.99,,,-99.99,,2013-03-01 09:32:00,
2013-03-01 04:42:00,35.0,32.0,29.54,NNE,21,0.0,-999.0,90,-99.99,,,-99.99,,2013-03-01 09:42:00,
2013-03-01 04:52:00,35.0,32.0,29.54,NNE,22,0.0,-999.0,90,-99.99,,,-99.99,,2013-03-01 09:52:00,
2013-03-01 05:02:00,35.0,32.0,29.54,NNE,19,0.0,-999.0,90,-99.99,,,-99.99,,2013-03-01 10:02:00,
2013-03-01 05:11:00,35.0,32.0,29.54,NNE,19,0.0,-999.0,90,-99.99,,,-99.99,,2013-03-01 10:11:00,
2013-03-01 05:22:00,35.0,32.0,29.54,NNE,19,0.0,-999.0,90,-99.99,,,-99.99,,2013-03-01 10:22:00,
2013-03-01 05:32:00,35.0,32.0,29.55,NE,51,1.0,-999.0,89,-99.99,,,-99.99,,2013-03-01 10:32:00,
2013-03-01 05:42:00,35.0,32.0,29.55,NE,51,1.0,-999.0,89,-99.99,,,-99.99,,2013-03-01 10:42:00,
2013-03-01 05:52:00,35.0,32.0,29.55,NNE,18,0.0,-999.0,89,-99.99,,,-99.99,,2013-03-01 10:52:00,
2013-03-01 06:02:00,35.0,32.0,29.55,NNE,12,2.0,-999.0,88,-99.99,,,-99.99,,2013-03-01 11:02:00,
2013-03-01 06:11:00,35.0,32.0,29.55,NNE,12,2.0,-999.0,88,-99.99,,,-99.99,,2013-03-01 11:11:00,
2013-03-01 06:22:00,35.0,32.0,29.55,NNE,13,0.0,-999.0,88,-99.99,,,-99.99,,2013-03-01 11:22:00,
2013-03-01 06:32:00,35.0,32.0,29.56,North,9,1.0,-999.0,87,-99.99,,,-99.99,,2013-03-01 11:32:00,
2013-03-01 06:42:00,35.0,32.0,29.56,North,9,1.0,-999.0,87,-99.99,,,-99.99,,2013-03-01 11:42:00,
2013-03-01 06:52:00,35.0,32.0,29.56,NNE,13,0.0,-999.0,87,-99.99,,,-99.99,,2013-03-01 11:52:00,
2013-03-01 07:02:00,35.0,32.0,29.56,NNE,25,0.0,-999.0,87,-99.99,,,-99.99,,2013-03-01 12:02:00,
2013-03-01 07:11:00,35.0,32.0,29.56,NNE,25,0.0,-999.0,87,-99.99,,,-99.99,,2013-03-01 12:11:00,
2013-03-01 07:21:00,35.0,32.0,29.57,NNE,22,1.0,-999.0,87,-99.99,,,-99.99,,2013-03-01 12:21:00,
2013-03-01 07:32:00,35.0,31.0,29.56,NNE,12,3.0,-999.0,86,-99.99,,,-99.99,,2013-03-01 12:32:00,
2013-03-01 07:42:00,35.0,31.0,29.56,NNE,12,3.0,-999.0,86,-99.99,,,-99.99,,2013-03-01 12:42:00,
2013-03-01 07:52:00,35.0,31.0,29.57,North,5,0.0,-999.0,86,-99.99,,,-99.99,,2013-03-01 12:52:00,
2013-03-01 08:01:00,35.0,31.0,29.57,NNE,29,2.0,-999.0,85,-99.99,,,-99.99,,2013-03-01 13:01:00,
2013-03-01 08:11:00,36.0,31.0,29.58,NNE,17,4.0,-999.0,83,-99.99,,,-99.99,,2013-03-01 13:11:00,
2013-03-01 08:22:00,36.0,31.0,29.58,NNE,17,4.0,-999.0,83,-99.99,,,-99.99,,2013-03-01 13:22:00,
2013-03-01 08:32:00,37.0,32.0,29.59,NNE,19,4.0,-999.0,82,-99.99,,,-99.99,,2013-03-01 13:32:00,
2013-03-01 08:42:00,37.0,32.0,29.59,NNE,19,4.0,-999.0,82,-99.99,,,-99.99,,2013-03-01 13:42:00,
2013-03-01 08:52:00,37.0,32.0,29.59,NNE,19,4.0,-999.0,82,-99.99,,,-99.99,,2013-03-01 13:52:00,
2013-03-01 09:01:00,37.0,32.0,29.59,North,9,2.0,-999.0,82,-99.99,,,-99.99,,2013-03-01 14:01:00,
2013-03-01 09:11:00,37.0,32.0,29.59,North,9,2.0,-999.0,82,-99.99,,,-99.99,,2013-03-01 14:11:00,
2013-03-01 09:21:00,37.0,32.0,29.59,North,9,2.0,-999.0,82,-99.99,,,-99.99,,2013-03-01 14:21:00,
2013-03-01 09:32:00,37.0,31.0,29.59,North,5,2.0,-999.0,80,-99.99,,,-99.99,,2013-03-01 14:32:00,
2013-03-01 09:42:00,37.0,31.0,29.59,North,5,2.0,-999.0,80,-99.99,,,-99.99,,2013-03-01 14:42:00,
2013-03-01 09:52:00,38.0,32.0,29.59,NNE,24,1.0,-999.0,78,-99.99,,,-99.99,,2013-03-01 14:52:00,
2013-03-01 10:02:00,38.0,31.0,29.59,NNE,16,6.0,-999.0,77,-99.99,,,-99.99,,2013-03-01 15:02:00,
2013-03-01 10:11:00,38.0,31.0,29.59,NNE,16,6.0,-999.0,77,-99.99,,,-99.99,,2013-03-01 15:11:00,
2013-03-01 10:21:00,38.0,31.0,29.59,NNE,16,6.0,-999.0,77,-99.99,,,-99.99,,2013-03-01 15:21:00,
2013-03-01 10:32:00,38.0,31.0,29.59,NNW,331,2.0,-999.0,76,-99.99,,,-99.99,,2013-03-01 15:32:00,
2013-03-01 10:42:00,38.0,31.0,29.59,NNW,331,2.0,-999.0,76,-99.99,,,-99.99,,2013-03-01 15:42:00,
2013-03-01 10:52:00,39.0,31.0,29.59,North,360,3.0,-999.0,72,-99.99,,,-99.99,,2013-03-01 15:52:00,
2013-03-01 11:01:00,40.0,32.0,29.60,North,5,2.0,-999.0,72,-99.99,,,-99.99,,2013-03-01 16:01:00,
2013-03-01 11:11:00,40.0,32.0,29.60,North,5,2.0,-999.0,72,-99.99,,,-99.99,,2013-03-01 16:11:00,
2013-03-01 11:21:00,40.0,31.0,29.60,NNE,18,3.0,-999.0,70,-99.99,,,-99.99,,2013-03-01 16:21:00,
2013-03-01 11:32:00,40.0,31.0,29.60,NNE,18,3.0,-999.0,70,-99.99,,,-99.99,,2013-03-01 16:32:00,
2013-03-01 11:42:00,40.0,31.0,29.60,NNE,18,3.0,-999.0,70,-99.99,,,-99.99,,2013-03-01 16:42:00,
2013-03-01 11:51:00,39.0,31.0,29.61,NNE,25,2.0,-999.0,73,-99.99,,,-99.99,,2013-03-01 16:51:00,
2013-03-01 12:01:00,39.0,31.0,29.61,NNW,329,3.0,-999.0,72,-99.99,,,-99.99,,2013-03-01 17:01:00,
2013-03-01 12:11:00,39.0,31.0,29.61,North,5,1.0,-999.0,73,-99.99,,,-99.99,,2013-03-01 17:11:00,
2013-03-01 12:21:00,39.0,31.0,29.61,North,5,1.0,-999.0,73,-99.99,,,-99.99,,2013-03-01 17:21:00,
2013-03-01 12:32:00,40.0,32.0,29.60,NNE,22,5.0,-999.0,72,-99.99,,,-99.99,,2013-03-01 17:32:00,
2013-03-01 12:42:00,40.0,31.0,29.60,North,5,4.0,-999.0,71,-99.99,,,-99.99,,2013-03-01 17:42:00,
2013-03-01 12:52:00,40.0,31.0,29.60,North,5,4.0,-999.0,71,-99.99,,,-99.99,,2013-03-01 17:52:00,
2013-03-01 13:01:00,40.0,32.0,29.60,NNE,19,2.0,-999.0,72,-99.99,,,-99.99,,2013-03-01 18:01:00,
2013-03-01 13:12:00,40.0,32.0,29.60,NNE,19,2.0,-999.0,72,-99.99,,,-99.99,,2013-03-01 18:12:00,
2013-03-01 13:22:00,40.0,31.0,29.59,NW,315,3.0,-999.0,71,-99.99,,,-99.99,,2013-03-01 18:22:00,
2013-03-01 13:32:00,40.0,31.0,29.59,NNW,338,4.0,-999.0,71,-99.99,,,-99.99,,2013-03-01 18:32:00,
2013-03-01 13:42:00,40.0,31.0,29.59,North,349,1.0,-999.0,70,-99.99,,,-99.99,,2013-03-01 18:42:00,
2013-03-01 13:52:00,40.0,31.0,29.59,North,349,1.0,-999.0,70,-99.99,,,-99.99,,2013-03-01 18:52:00,
2013-03-01 14:01:00,40.0,31.0,29.59,North,355,1.0,-999.0,71,-99.99,,,-99.99,,2013-03-01 19:01:00,
2013-03-01 14:11:00,40.0,31.0,29.59,North,355,1.0,-999.0,71,-99.99,,,-99.99,,2013-03-01 19:11:00,
2013-03-01 14:21:00,40.0,31.0,29.59,NNE,15,5.0,-999.0,71,-99.99,,,-99.99,,2013-03-01 19:21:00,
2013-03-01 14:32:00,40.0,32.0,29.59,North,355,1.0,-999.0,72,-99.99,,,-99.99,,2013-03-01 19:32:00,
2013-03-01 14:42:00,40.0,32.0,29.59,North,355,1.0,-999.0,72,-99.99,,,-99.99,,2013-03-01 19:42:00,
2013-03-01 14:51:00,40.0,32.0,29.60,NNE,15,0.0,-999.0,72,-99.99,,,-99.99,,2013-03-01 19:51:00,
2013-03-01 15:01:00,39.0,31.0,29.61,North,9,2.0,-999.0,72,-99.99,,,-99.99,,2013-03-01 20:01:00,
2013-03-01 15:11:00,39.0,31.0,29.61,North,9,2.0,-999.0,72,-99.99,,,-99.99,,2013-03-01 20:11:00,
2013-03-01 15:21:00,39.0,33.0,29.61,NNE,17,2.0,-999.0,78,-99.99,,,-99.99,,2013-03-01 20:21:00,
2013-03-01 15:32:00,38.0,33.0,29.61,NE,45,1.0,-999.0,82,-99.99,,,-99.99,,2013-03-01 20:32:00,
2013-03-01 15:42:00,38.0,33.0,29.61,NE,45,1.0,-999.0,82,-99.99,,,-99.99,,2013-03-01 20:42:00,
2013-03-01 15:52:00,37.0,33.0,29.62,NNE,19,0.0,-999.0,85,-99.99,,,-99.99,,2013-03-01 20:52:00,
2013-03-01 16:01:00,37.0,33.0,29.62,NNE,19,0.0,-999.0,86,-99.99,,,-99.99,,2013-03-01 21:01:00,
2013-03-01 16:11:00,37.0,33.0,29.62,NNE,19,0.0,-999.0,86,-99.99,,,-99.99,,2013-03-01 21:11:00,
2013-03-01 16:21:00,37.0,33.0,29.62,NNE,19,0.0,-999.0,86,-99.99,,,-99.99,,2013-03-01 21:21:00,
2013-03-01 16:32:00,37.0,33.0,29.62,NNE,20,0.0,-999.0,86,-99.99,,,-99.99,,2013-03-01 21:32:00,
2013-03-01 16:42:00,37.0,33.0,29.62,NNE,20,0.0,-999.0,86,-99.99,,,-99.99,,2013-03-01 21:42:00,
2013-03-01 16:51:00,37.0,33.0,29.62,NNE,20,0.0,-999.0,86,-99.99,,,-99.99,,2013-03-01 21:51:00,
2013-03-01 17:01:00,37.0,33.0,29.63,NNE,20,0.0,-999.0,85,-99.99,,,-99.99,,2013-03-01 22:01:00,
2013-03-01 17:11:00,37.0,33.0,29.63,NNE,19,0.0,-999.0,86,-99.99,,,-99.99,,2013-03-01 22:11:00,
2013-03-01 17:21:00,37.0,33.0,29.63,NNE,19,0.0,-999.0,86,-99.99,,,-99.99,,2013-03-01 22:21:00,
2013-03-01 17:32:00,37.0,34.0,29.64,NNE,19,0.0,-999.0,88,-99.99,,,-99.99,,2013-03-01 22:32:00,
2013-03-01 17:42:00,37.0,34.0,29.64,NNE,19,0.0,-999.0,88,-99.99,,,-99.99,,2013-03-01 22:42:00,
2013-03-01 17:51:00,37.0,34.0,29.64,NNE,20,0.0,-999.0,88,-99.99,,,-99.99,,2013-03-01 22:51:00,
2013-03-01 18:01:00,37.0,32.0,29.64,NNE,24,0.0,-999.0,82,-99.99,,,-99.99,,2013-03-01 23:01:00,
2013-03-01 18:11:00,37.0,32.0,29.64,NNE,24,0.0,-999.0,82,-99.99,,,-99.99,,2013-03-01 23:11:00,
2013-03-01 18:21:00,37.0,31.0,29.65,NNE,26,0.0,-999.0,80,-99.99,,,-99.99,,2013-03-01 23:21:00,
2013-03-01 18:32:00,37.0,31.0,29.65,NNE,26,0.0,-999.0,80,-99.99,,,-99.99,,2013-03-01 23:32:00,
2013-03-01 18:41:00,37.0,31.0,29.65,NNE,26,0.0,-999.0,80,-99.99,,,-99.99,,2013-03-01 23:41:00,
2013-03-01 18:52:00,37.0,31.0,29.65,North,11,2.0,-999.0,79,-99.99,,,-99.99,,2013-03-01 23:52:00,
2013-03-01 19:02:00,37.0,31.0,29.65,NNE,18,0.0,-999.0,79,-99.99,,,-99.99,,2013-03-02 00:02:00,
2013-03-01 19:12:00,37.0,31.0,29.65,NNE,18,0.0,-999.0,79,-99.99,,,-99.99,,2013-03-02 00:12:00,
2013-03-01 19:22:00,37.0,31.0,29.65,NNE,18,0.0,-999.0,79,-99.99,,,-99.99,,2013-03-02 00:22:00,
2013-03-01 19:32:00,37.0,31.0,29.65,NNE,17,0.0,-999.0,79,-99.99,,,-99.99,,2013-03-02 00:32:00,
2013-03-01 19:42:00,37.0,31.0,29.65,NNE,17,0.0,-999.0,79,-99.99,,,-99.99,,2013-03-02 00:42:00,
2013-03-01 19:52:00,37.0,31.0,29.65,NNE,17,1.0,-999.0,79,-99.99,,,-99.99,,2013-03-02 00:52:00,
2013-03-01 20:01:00,36.0,30.0,29.65,NNE,17,0.0,-999.0,80,-99.99,,,-99.99,,2013-03-02 01:01:00,
2013-03-01 20:11:00,36.0,30.0,29.65,NNE,17,0.0,-999.0,80,-99.99,,,-99.99,,2013-03-02 01:11:00,
2013-03-01 20:21:00,36.0,30.0,29.65,NNE,13,0.0,-999.0,79,-99.99,,,-99.99,,2013-03-02 01:21:00,
2013-03-01 20:32:00,36.0,30.0,29.65,North,5,1.0,-999.0,78,-99.99,,,-99.99,,2013-03-02 01:32:00,
2013-03-01 20:41:00,36.0,30.0,29.65,North,5,1.0,-999.0,78,-99.99,,,-99.99,,2013-03-02 01:41:00,
2013-03-01 20:52:00,36.0,29.0,29.66,North,355,0.0,-999.0,77,-99.99,,,-99.99,,2013-03-02 01:52:00,
2013-03-01 21:01:00,36.0,29.0,29.66,North,360,0.0,-999.0,76,-99.99,,,-99.99,,2013-03-02 02:01:00,
2013-03-01 21:11:00,36.0,29.0,29.66,North,360,0.0,-999.0,76,-99.99,,,-99.99,,2013-03-02 02:11:00,
2013-03-01 21:22:00,36.0,29.0,29.65,North,355,2.0,-999.0,76,-99.99,,,-99.99,,2013-03-02 02:22:00,
2013-03-01 21:32:00,36.0,29.0,29.65,North,360,2.0,-999.0,76,-99.99,,,-99.99,,2013-03-02 02:32:00,
2013-03-01 21:42:00,36.0,29.0,29.65,North,360,2.0,-999.0,76,-99.99,,,-99.99,,2013-03-02 02:42:00,
2013-03-01 21:52:00,36.0,29.0,29.66,NE,40,0.0,-999.0,75,-99.99,,,-99.99,,2013-03-02 02:52:00,
2013-03-01 22:02:00,36.0,29.0,29.66,NE,40,1.0,-999.0,75,-99.99,,,-99.99,,2013-03-02 03:02:00,
2013-03-01 22:11:00,36.0,29.0,29.66,NE,40,1.0,-999.0,75,-99.99,,,-99.99,,2013-03-02 03:11:00,
2013-03-01 22:22:00,36.0,29.0,29.66,North,360,1.0,-999.0,75,-99.99,,,-99.99,,2013-03-02 03:22:00,
2013-03-01 22:32:00,36.0,29.0,29.66,North,360,1.0,-999.0,75,-99.99,,,-99.99,,2013-03-02 03:32:00,
2013-03-01 22:42:00,36.0,29.0,29.66,North,360,1.0,-999.0,75,-99.99,,,-99.99,,2013-03-02 03:42:00,
2013-03-01 22:52:00,36.0,29.0,29.65,NNE,28,2.0,-999.0,76,-99.99,,,-99.99,,2013-03-02 03:52:00,
2013-03-01 23:01:00,36.0,29.0,29.65,NNW,339,0.0,-999.0,76,-99.99,,,-99.99,,2013-03-02 04:01:00,
2013-03-01 23:12:00,36.0,29.0,29.65,NNW,339,0.0,-999.0,76,-99.99,,,-99.99,,2013-03-02 04:12:00,
2013-03-01 23:22:00,36.0,29.0,29.65,NNW,339,0.0,-999.0,76,-99.99,,,-99.99,,2013-03-02 04:22:00,
2013-03-01 23:32:00,36.0,29.0,29.65,NNW,329,1.0,-999.0,76,-99.99,,,-99.99,,2013-03-02 04:32:00,
2013-03-01 23:42:00,36.0,29.0,29.65,NNW,329,1.0,-999.0,76,-99.99,,,-99.99,,2013-03-02 04:42:00,
2013-03-01 23:52:00,36.0,29.0,29.65,North,355,0.0,-999.0,77,-99.99,,,-99.99,,2013-03-02 04:52:00,